Regional Weather Roundup
Issued by NWS

Home | Current Version | Previous Version | Graphics & Text | Print | Product List | Glossary On
Versions: 1 2 3 4 5 6 7 8 9 10 11 12 13 14 15 16 17 18 19 20 21 22 23 24 25 26 27 28 29 30 31 32 33 34 35 36 37 38 39 40 41 42 43 44 45 46 47 48 49 50
281
ASUS44 KLIX 222305
RWRLA
LOUISIANA WEATHER ROUNDUP
NATIONAL WEATHER SERVICE NEW ORLEANS LA
600 PM CDT TUE APR 22 2014

NOTE: "FAIR" INDICATES FEW OR NO CLOUDS BELOW 12,000 FEET WITH NO
      SIGNIFICANT WEATHER AND/OR OBSTRUCTIONS TO VISIBILITY.
      SKY/WX - SKY CONDITION AND SIGNIFICANT WEATHER.
      TMP - AIR TEMPERATURE.    DP   - DEWPOINT TEMPERATURE.
      RH  - RELATIVE HUMIDITY.  PRES - PRESSURE.
      HX  - HEAT INDEX.         WCI  - WIND CHILL INDEX.

*  THESE STATIONS ARE NOT NWS OR FAA STATIONS AND ARE NOT UNDER
   NWS QUALITY CONTROL.

LAZ040-048-061>063-065-066-069-230000-
SOUTHEAST LOUISIANA

CITY           SKY/WX    TMP DP  RH WIND       PRES   REMARKS
N.O. AUDUBON     N/A     78  67  69 MISG        N/A
N.O. INTL ARPT PTSUNNY   75  67  76 SW5       29.89S
N.O. LAKEFRONT MOSUNNY   74  67  78 W6        29.89F
N.O. DOWNTOWN* CLOUDY    77  63  61 W3        29.89F
SLIDELL        PTSUNNY   76  65  68 SW6       29.88S
BATON ROUGE    MOSUNNY   79  60  52 NW9       29.90F
BOOTHVILLE     CLOUDY    72  67  84 W12       29.90F
BELLE CHASSE   PTSUNNY   74  65  73 VRB5      29.89S
BOGALUSA*        N/A     77  62  60 N8        29.90S
GALLIANO*      PTCLDY    78  66  68 SW10      29.89F
NEW ROADS*     FAIR      77  59  53 NW5       29.90F
GONZALES*      CLOUDY    79  62  55 NW6       29.89S
HAMMOND*       MOSUNNY   77  61  57 NW7       29.91S
HOUMA*         MOSUNNY   75  64  69 W12       29.90F
PORT FOURCHON* PTCLDY    73  68  83 W12G17    29.92F

$$

LAZ041-044-053-054-230000-
SOUTHWEST LOUISIANA

CITY           SKY/WX    TMP DP  RH WIND       PRES   REMARKS
LAKE CHARLES   SUNNY     84  58  40 N9        29.89F
LAFAYETTE      MOSUNNY   79  61  53 N10       29.90F
PATTERSON      CLOUDY    75  68  78 SW12      29.94S
SALT POINT       N/A     76  69  79 VRB6      29.89F
NEW IBERIA     SUNNY     80  60  50 N9        29.90F
CHENAULT AIRPK MOSUNNY   82  57  42 N7        29.91F

$$

LAZ027-028-230000-
CENTRAL LOUISIANA

CITY           SKY/WX    TMP DP  RH WIND       PRES   REMARKS
FORT POLK      MOSUNNY   79  58  48 N6        29.91F
ALEXANDRIA INT PTSUNNY   80  60  50 NW7       29.89F
ALEXANDRIA     SUNNY     82  58  43 VRB5      29.90F

$$

LAZ001-002-230000-
NORTHWEST LOUISIANA

CITY           SKY/WX    TMP DP  RH WIND       PRES   REMARKS
SHREVEPORT     MOSUNNY   82  56  40 N6        29.91F
BARKSDALE AFB  MOSUNNY   82  58  43 VRB3      29.91F
DTN SHREVEPORT SUNNY     80  57  45 NW6       29.91F

$$

LAZ014-016-230000-
NORTHEAST LOUISIANA

CITY           SKY/WX    TMP DP  RH WIND       PRES   REMARKS
MONROE         SUNNY     78  58  49 N9        29.92F
TALLULAH       SUNNY     78  61  55 N8        29.90F

$$




USA.gov is the U.S. government's official web portal to all federal, state and local government web resources and services.